FW5435 Weather Reports


time (UTC)temp
C
wind
direction
speed
KPH
gust
KPH
rain 1hr
cm
rain 24hr
cm
rain mn
cm
humidity
%
barometer
mb
20260510184034 28 0 0.0 12.9 0.00 0.00 0.00 39 1013.7
20260510183534 28 0 0.0 12.9 0.00 0.00 0.00 37 1013.8
20260510183056 28 270 3.2 14.5 0.00 0.00 0.00 34 1013.8
20260510182537 28 0 3.2 14.5 0.00 0.00 0.00 36 1013.8
20260510182033 28 274 3.2 14.5 0.00 0.00 0.00 35 1013.9
20260510181615 28 271 1.6 14.5 0.00 0.00 0.00 34 1014.0
20260510181034 28 270 3.2 14.5 0.00 0.00 0.00 35 1013.9
20260510180534 28 245 3.2 12.9 0.00 0.00 0.00 38 1013.9
20260510180059 28 263 6.4 12.9 0.00 0.00 0.00 34 1013.9
20260510175535 28 0 0.0 9.7 0.00 0.00 0.00 41 1014.0
20260510175033 27 0 1.6 9.7 0.00 0.00 0.00 37 1014.0
20260510174557 27 0 1.6 12.9 0.00 0.00 0.00 37 1014.0
20260510174035 27 0 3.2 12.9 0.00 0.00 0.00 36 1014.1
20260510173534 27 269 4.8 12.9 0.00 0.00 0.00 34 1014.1
20260510173048 27 269 1.6 11.3 0.00 0.00 0.00 35 1014.0
20260510172534 27 0 1.6 9.7 0.00 0.00 0.00 38 1014.0
20260510172034 27 0 3.2 9.7 0.00 0.00 0.00 35 1014.0
20260510171547 27 0 0.0 4.8 0.00 0.00 0.00 44 1014.0
20260510171033 27 0 0.0 4.8 0.00 0.00 0.00 44 1014.1
20260510170534 26 267 0.0 9.7 0.00 0.00 0.00 42 1014.0
20260510170044 26 0 1.6 9.7 0.00 0.00 0.00 40 1014.1
20260510165535 26 272 1.6 9.7 0.00 0.00 0.00 41 1014.1
20260510165034 26 263 1.6 9.7 0.00 0.00 0.00 42 1014.1
20260510164544 26 0 0.0 3.2 0.00 0.00 0.00 46 1014.3
20260510164034 26 0 0.0 3.2 0.00 0.00 0.00 45 1014.2
20260510163533 26 0 0.0 6.4 0.00 0.00 0.00 48 1014.3
20260510163043 26 0 1.6 6.4 0.00 0.00 0.00 47 1014.3
20260510162537 25 272 0.0 6.4 0.00 0.00 0.00 45 1014.3
20260510162034 25 0 1.6 6.4 0.00 0.00 0.00 47 1014.3
20260510161549 25 0 0.0 3.2 0.00 0.00 0.00 47 1014.4
20260510161034 25 0 0.0 4.8 0.00 0.00 0.00 50 1014.4
20260510160532 25 0 1.6 4.8 0.00 0.00 0.00 51 1014.4
20260510160045 25 270 0.0 4.8 0.00 0.00 0.00 53 1014.4
20260510155533 25 0 0.0 9.7 0.00 0.00 0.00 52 1014.5
20260510155034 24 0 0.0 9.7 0.00 0.00 0.00 54 1014.7
20260510154546 24 261 0.0 6.4 0.00 0.00 0.00 55 1014.8
20260510154034 23 0 0.0 4.8 0.00 0.00 0.00 59 1015.0
20260510153533 23 0 0.0 9.7 0.00 0.00 0.00 61 1014.9
20260510153050 23 269 0.0 9.7 0.00 0.00 0.00 61 1014.7
20260510153033 23 0 0.0 3.2 0.00 0.00 0.00 63 1014.8
20260510143052 20 0 0.0 1.6 0.00 0.00 0.00 72 1014.6
20260510142537 20 0 0.0 1.6 0.00 0.00 0.00 74 1014.4
20260510142035 20 0 0.0 0.0 0.00 0.00 0.00 75 1014.6
20260510141548 19 0 0.0 0.0 0.00 0.00 0.00 77 1014.4
20260510141033 19 0 0.0 1.6 0.00 0.00 0.00 80 1014.6
20260510140533 19 0 0.0 1.6 0.00 0.00 0.00 81 1014.6
20260510140045 18 0 0.0 1.6 0.00 0.00 0.00 83 1014.6
20260510135533 18 0 0.0 0.0 0.00 0.00 0.00 84 1014.6
20260510135035 18 0 0.0 4.8 0.00 0.00 0.00 86 1014.6
20260510134549 18 0 0.0 4.8 0.00 0.00 0.00 89 1014.7
20260510134033 17 267 0.0 3.2 0.00 0.00 0.00 90 1014.5
20260510133533 17 0 0.0 0.0 0.00 0.00 0.00 92 1014.5
20260510133042 17 0 0.0 3.2 0.00 0.00 0.00 93 1014.4
20260510132536 17 0 0.0 3.2 0.00 0.00 0.00 96 1014.5
20260510132036 17 0 0.0 3.2 0.00 0.00 0.00 97 1014.6
20260510131541 17 0 0.0 4.8 0.00 0.00 0.00 97 1014.5
20260510131033 17 0 0.0 4.8 0.00 0.00 0.00 97 1014.4
20260510130533 16 0 0.0 1.6 0.00 0.00 0.00 97 1014.3
20260510130042 16 0 0.0 1.6 0.00 0.00 0.00 97 1014.2
20260510125536 16 0 0.0 0.0 0.00 0.00 0.00 97 1014.1
20260510125032 16 0 0.0 0.0 0.00 0.00 0.00 97 1014.1
20260510124545 16 0 0.0 0.0 0.00 0.00 0.00 97 1014.1
20260510124034 16 0 0.0 0.0 0.00 0.00 0.00 97 1014.1
20260510123534 15 0 0.0 0.0 0.00 0.00 0.00 97 1014.0
20260510123051 15 0 0.0 0.0 0.00 0.00 0.00 97 1014.1
20260510122534 15 0 0.0 0.0 0.00 0.00 0.00 96 1014.1
20260510122035 15 0 0.0 0.0 0.00 0.00 0.00 96 1014.0
20260510121548 15 0 0.0 0.0 0.00 0.00 0.00 96 1013.9
20260510121036 15 0 0.0 0.0 0.00 0.00 0.00 96 1013.9
20260510120536 15 0 0.0 0.0 0.00 0.00 0.00 96 1014.0
20260510120042 15 0 0.0 0.0 0.00 0.00 0.00 96 1013.9
20260510115536 15 0 0.0 0.0 0.00 0.00 0.00 96 1013.9
20260510115036 14 0 0.0 0.0 0.00 0.00 0.00 96 1013.8
20260510114553 14 0 0.0 0.0 0.00 0.00 0.00 96 1013.8
20260510114035 14 0 0.0 0.0 0.00 0.00 0.00 96 1013.7
20260510113535 14 0 0.0 0.0 0.00 0.00 0.00 96 1013.7
20260510113045 14 0 0.0 0.0 0.00 0.00 0.00 96 1013.5
20260510112535 13 0 0.0 0.0 0.00 0.00 0.00 95 1013.6
20260510112035 13 0 0.0 0.0 0.00 0.00 0.00 95 1013.5
20260510111546 13 0 0.0 0.0 0.00 0.00 0.00 95 1013.4
20260510111034 13 0 0.0 0.0 0.00 0.00 0.00 95 1013.3
20260510110536 13 0 0.0 0.0 0.00 0.00 0.00 95 1013.3
20260510110045 13 0 0.0 0.0 0.00 0.00 0.00 95 1013.1
20260510105536 13 0 0.0 0.0 0.00 0.00 0.00 95 1013.1
20260510105035 13 0 0.0 0.0 0.00 0.00 0.00 94 1013.0
20260510104546 13 0 0.0 0.0 0.00 0.00 0.00 94 1013.0
20260510104035 13 0 0.0 0.0 0.00 0.00 0.00 95 1013.0
20260510103535 13 0 0.0 0.0 0.00 0.00 0.00 95 1013.0
20260510103048 13 0 0.0 0.0 0.00 0.00 0.00 94 1012.9
20260510102535 13 0 0.0 0.0 0.00 0.00 0.00 94 1012.7
20260510102036 13 0 0.0 0.0 0.00 0.00 0.00 94 1012.7
20260510101550 13 0 0.0 0.0 0.00 0.00 0.00 94 1012.5
20260510101036 13 0 0.0 0.0 0.00 0.00 0.00 94 1012.4
20260510100537 13 0 0.0 0.0 0.00 0.00 0.00 94 1012.3
20260510100108 13 0 0.0 0.0 0.00 0.00 0.00 94 1012.3
20260510095535 13 0 0.0 0.0 0.00 0.00 0.00 94 1012.3
20260510095036 13 0 0.0 0.0 0.00 0.00 0.00 94 1012.0
20260510094545 13 0 0.0 0.0 0.00 0.00 0.00 94 1012.2
20260510094034 13 0 0.0 0.0 0.00 0.00 0.00 94 1012.1
20260510093536 13 0 0.0 0.0 0.00 0.00 0.00 94 1011.9
20260510093049 13 0 0.0 0.0 0.00 0.00 0.00 94 1012.1
20260510092534 13 0 0.0 0.0 0.00 0.00 0.00 94 1012.0
20260510092034 13 0 0.0 0.0 0.00 0.00 0.00 94 1011.9
20260510091541 13 0 0.0 0.0 0.00 0.00 0.00 94 1011.9
20260510091034 13 0 0.0 0.0 0.00 0.00 0.00 94 1011.9
20260510090535 13 0 0.0 0.0 0.00 0.00 0.00 94 1011.8
20260510090045 13 0 0.0 0.0 0.00 0.00 0.00 94 1011.8
20260510085536 13 0 0.0 0.0 0.00 0.00 0.00 94 1011.8
20260510085035 13 0 0.0 0.0 0.00 0.00 0.00 94 1011.8
20260510084542 13 0 0.0 0.0 0.00 0.00 0.00 94 1011.7
20260510084035 13 0 0.0 0.0 0.00 0.00 0.00 94 1011.7
20260510083535 13 0 0.0 0.0 0.00 0.00 0.00 94 1011.7
20260510083052 13 0 0.0 0.0 0.00 0.00 0.00 94 1011.7
20260510082534 13 0 0.0 0.0 0.00 0.00 0.00 94 1011.5
20260510082035 13 0 0.0 0.0 0.00 0.00 0.00 94 1011.5
20260510081547 13 0 0.0 0.0 0.00 0.00 0.00 94 1011.5
20260510081035 13 0 0.0 0.0 0.00 0.00 0.00 94 1011.5
20260510080534 13 0 0.0 0.0 0.00 0.00 0.00 94 1011.5
20260510080044 13 0 0.0 0.0 0.00 0.00 0.00 94 1011.4
20260510075538 13 0 0.0 0.0 0.00 0.00 0.00 94 1011.4
20260510075035 13 0 0.0 0.0 0.00 0.00 0.00 94 1011.4
20260510074544 13 0 0.0 0.0 0.00 0.00 0.00 94 1011.4
20260510074035 13 0 0.0 0.0 0.00 0.00 0.00 94 1011.4
20260510073534 13 0 0.0 0.0 0.00 0.00 0.00 93 1011.3
20260510073041 13 0 0.0 0.0 0.00 0.00 0.00 93 1011.2
20260510072534 13 0 0.0 0.0 0.00 0.00 0.00 93 1011.2
20260510072037 13 0 0.0 0.0 0.00 0.00 0.00 93 1011.2
20260510071553 14 0 0.0 0.0 0.00 0.00 0.00 93 1011.1
20260510071034 14 0 0.0 0.0 0.00 0.00 0.00 93 1011.2
20260510070535 14 0 0.0 0.0 0.00 0.00 0.00 93 1011.2
20260510070051 14 0 0.0 0.0 0.00 0.00 0.00 94 1011.3
20260510065535 14 0 0.0 0.0 0.00 0.00 0.00 94 1011.3
20260510065035 14 0 0.0 0.0 0.00 0.00 0.00 94 1011.4
20260510064544 14 0 0.0 0.0 0.00 0.00 0.00 93 1011.4
20260510064035 14 0 0.0 0.0 0.00 0.00 0.00 94 1011.3
20260510063535 14 0 0.0 0.0 0.00 0.00 0.00 93 1011.3
20260510063050 14 0 0.0 0.0 0.00 0.00 0.00 93 1011.2
20260510062534 14 0 0.0 0.0 0.00 0.00 0.00 94 1011.2
20260510062034 14 0 0.0 0.0 0.00 0.00 0.00 94 1011.1
20260510061549 14 0 0.0 0.0 0.00 0.00 0.00 93 1011.0
20260510061035 14 0 0.0 0.0 0.00 0.00 0.00 93 1011.0
20260510060538 14 0 0.0 0.0 0.00 0.00 0.00 93 1011.2
20260510060042 14 0 0.0 0.0 0.00 0.00 0.00 93 1011.2
20260510055535 14 0 0.0 0.0 0.00 0.00 0.00 93 1011.3
20260510055034 14 0 0.0 0.0 0.00 0.00 0.00 93 1011.3
20260510054549 14 0 0.0 0.0 0.00 0.00 0.00 93 1011.4
20260510054037 14 0 0.0 0.0 0.00 0.00 0.00 93 1011.4
20260510053534 14 0 0.0 0.0 0.00 0.00 0.00 93 1011.5
20260510053043 14 0 0.0 0.0 0.00 0.00 0.00 93 1011.5
20260510052536 14 0 0.0 0.0 0.00 0.00 0.00 93 1011.7
20260510052035 14 0 0.0 0.0 0.00 0.00 0.00 93 1011.6
20260510051547 14 0 0.0 0.0 0.00 0.00 0.00 93 1011.7
20260510051035 14 0 0.0 0.0 0.00 0.00 0.00 93 1011.8
20260510050534 14 0 0.0 0.0 0.00 0.00 0.00 93 1011.7
20260510050048 14 0 0.0 0.0 0.00 0.00 0.00 93 1011.6
20260510045535 14 0 0.0 0.0 0.00 0.00 0.00 93 1011.7
20260510045035 14 0 0.0 0.0 0.00 0.00 0.00 93 1011.8
20260510044546 14 0 0.0 0.0 0.00 0.00 0.00 93 1011.9
20260510044038 14 0 0.0 0.0 0.00 0.00 0.00 93 1011.9
20260510043534 14 0 0.0 0.0 0.00 0.00 0.00 93 1011.8
20260510043053 15 0 0.0 0.0 0.00 0.00 0.00 92 1011.7
20260510042535 15 0 0.0 0.0 0.00 0.00 0.00 93 1011.8
20260510042034 15 0 0.0 0.0 0.00 0.00 0.00 93 1011.8
20260510041547 15 0 0.0 0.0 0.00 0.00 0.00 93 1011.8
20260510041034 15 0 0.0 0.0 0.00 0.00 0.00 93 1011.8
20260510040534 15 0 0.0 0.0 0.00 0.00 0.00 93 1011.8
20260510040055 15 0 0.0 0.0 0.00 0.00 0.00 92 1011.8
20260510035534 15 0 0.0 0.0 0.00 0.00 0.00 92 1011.6
20260510035035 15 0 0.0 0.0 0.00 0.00 0.00 92 1011.6
20260510034547 15 0 0.0 0.0 0.00 0.00 0.00 92 1011.5
20260510034035 15 0 0.0 0.0 0.00 0.00 0.00 92 1011.6
20260510033534 15 0 0.0 0.0 0.00 0.00 0.00 92 1011.7
20260510033111 15 0 0.0 0.0 0.00 0.00 0.00 92 1011.6
20260510032535 15 0 0.0 0.0 0.00 0.00 0.00 92 1011.6
20260510032035 15 0 0.0 0.0 0.00 0.00 0.00 92 1011.5
20260510031551 15 0 0.0 0.0 0.00 0.00 0.00 92 1011.4
20260510031035 15 0 0.0 0.0 0.00 0.00 0.00 92 1011.4
20260510030535 15 0 0.0 0.0 0.00 0.00 0.00 92 1011.6
20260510030042 15 0 0.0 0.0 0.00 0.00 0.00 92 1011.5
20260510025534 15 0 0.0 0.0 0.00 0.00 0.00 92 1011.4
20260510025035 15 0 0.0 0.0 0.00 0.00 0.00 92 1011.4
20260510024554 15 0 0.0 0.0 0.00 0.00 0.00 92 1011.4
20260510024035 15 0 0.0 0.0 0.00 0.00 0.00 92 1011.5
20260510023535 15 0 0.0 0.0 0.00 0.00 0.00 92 1011.4
20260510023044 16 0 0.0 0.0 0.00 0.00 0.00 92 1011.3
20260510022535 16 0 0.0 0.0 0.00 0.00 0.00 92 1011.4
20260510022036 16 0 0.0 0.0 0.00 0.00 0.00 91 1011.3
20260510021543 16 0 0.0 0.0 0.00 0.00 0.00 91 1011.3
20260510021034 16 0 0.0 0.0 0.00 0.00 0.00 91 1011.3
20260510020535 16 0 0.0 0.0 0.00 0.00 0.00 91 1011.2
20260510020050 16 0 0.0 0.0 0.00 0.00 0.00 91 1011.2
20260510015534 16 0 0.0 0.0 0.00 0.00 0.00 91 1011.2
20260510015034 16 0 0.0 0.0 0.00 0.00 0.00 91 1011.2
20260510014545 16 0 0.0 0.0 0.00 0.00 0.00 90 1011.1
20260510014036 16 0 0.0 0.0 0.00 0.00 0.00 91 1010.9
20260510013535 16 0 0.0 0.0 0.00 0.00 0.00 91 1010.8
20260510013052 17 0 0.0 0.0 0.00 0.00 0.00 90 1010.8
20260510012534 17 0 0.0 0.0 0.00 0.00 0.00 90 1010.7
20260510012034 17 0 0.0 0.0 0.00 0.00 0.00 90 1010.6
20260510011554 17 0 0.0 0.0 0.00 0.00 0.00 90 1010.4
20260510011035 17 0 0.0 0.0 0.00 0.00 0.00 90 1010.4
20260510010535 17 0 0.0 0.0 0.00 0.00 0.00 90 1010.3
20260510010046 17 0 0.0 0.0 0.00 0.00 0.00 89 1010.3
20260510005534 17 0 0.0 0.0 0.00 0.00 0.00 89 1010.3
20260510005036 17 0 0.0 0.0 0.00 0.00 0.00 88 1010.2
20260510004548 18 0 0.0 0.0 0.00 0.00 0.00 88 1010.2
20260510004034 18 0 0.0 0.0 0.00 0.00 0.00 88 1010.2
20260510003535 18 0 0.0 0.0 0.00 0.00 0.00 87 1010.1
20260510003103 18 0 0.0 0.0 0.00 0.00 0.00 87 1010.2
20260510002534 18 0 0.0 0.0 0.00 0.00 0.00 86 1010.1
20260510002034 19 0 0.0 0.0 0.00 0.00 0.00 85 1010.2
20260510001549 19 0 0.0 0.0 0.00 0.00 0.00 85 1010.2
20260510001034 20 0 0.0 0.0 0.00 0.00 0.00 84 1010.2
20260510000536 20 0 0.0 0.0 0.00 0.00 0.00 82 1010.2
20260510000050 20 0 0.0 0.0 0.00 0.00 0.00 83 1010.0
20260509235534 20 0 0.0 0.0 0.00 0.00 0.00 82 1010.0
20260509235034 20 0 0.0 0.0 0.00 0.00 0.00 82 1010.0
20260509234559 21 0 0.0 0.0 0.00 0.00 0.00 81 1010.0
20260509234034 21 0 0.0 0.0 0.00 0.00 0.00 81 1009.7
20260509233533 21 0 0.0 0.0 0.00 0.00 0.00 81 1009.6
20260509233044 21 0 0.0 0.0 0.00 0.00 0.00 80 1009.6
20260509232534 21 0 0.0 0.0 0.00 0.00 0.00 79 1009.6
20260509232034 22 0 0.0 0.0 0.00 0.00 0.00 79 1009.6
20260509231552 22 0 0.0 0.0 0.00 0.00 0.00 78 1009.5
20260509231034 22 0 0.0 0.0 0.00 0.00 0.00 78 1009.4
20260509230534 22 0 0.0 1.6 0.00 0.00 0.00 77 1009.3
20260509230055 22 0 0.0 3.2 0.00 0.00 0.00 75 1009.3
20260509225534 22 0 0.0 6.4 0.00 0.00 0.00 75 1009.3
20260509225033 22 0 0.0 6.4 0.00 0.00 0.00 75 1009.1
20260509224544 22 0 1.6 6.4 0.00 0.00 0.00 75 1009.1
20260509224034 22 257 0.0 6.4 0.00 0.00 0.00 74 1009.0
20260509223534 22 271 0.0 9.7 0.00 0.00 0.00 74 1009.2
20260509223041 22 259 1.6 9.7 0.00 0.00 0.00 73 1009.1
20260509222533 22 0 3.2 11.3 0.00 0.00 0.00 73 1009.1
20260509222035 22 0 1.6 11.3 0.00 0.00 0.00 74 1009.2
20260509221546 22 265 3.2 11.3 0.00 0.00 0.00 73 1009.3
20260509221035 22 263 1.6 6.4 0.00 0.00 0.00 73 1009.3
20260509220533 22 0 1.6 6.4 0.00 0.00 0.00 74 1009.3
20260509220043 22 262 1.6 6.4 0.00 0.00 0.00 74 1009.3
20260509215534 22 0 0.0 9.7 0.00 0.00 0.00 74 1009.3
20260509215034 22 0 1.6 9.7 0.00 0.00 0.00 73 1009.3
20260509214546 22 0 3.2 9.7 0.00 0.00 0.00 73 1009.2
20260509214036 22 0 1.6 11.3 0.00 0.00 0.00 74 1009.3
20260509213534 22 262 3.2 11.3 0.00 0.00 0.00 73 1009.2
20260509213046 22 0 1.6 12.9 0.00 0.00 0.00 74 1009.2
20260509212536 22 268 4.8 12.9 0.00 0.00 0.00 73 1009.1
20260509212033 22 275 3.2 11.3 0.00 0.00 0.00 73 1009.1
20260509211546 22 267 1.6 9.7 0.00 0.00 0.00 73 1009.1
20260509211033 22 274 1.6 9.7 0.00 0.00 0.00 73 1008.9
20260509210535 22 270 3.2 9.7 0.00 0.00 0.00 73 1009.1
20260509210051 22 259 0.0 9.7 0.00 0.00 0.00 75 1009.0
20260509205534 21 275 0.0 12.9 0.00 0.00 0.00 75 1009.1
20260509205033 21 0 3.2 12.9 0.00 0.00 0.00 74 1009.1
20260509204546 21 0 1.6 9.7 0.00 0.00 0.00 74 1009.3
20260509204034 21 263 0.0 11.3 0.00 0.00 0.00 75 1009.4
20260509203533 21 272 1.6 11.3 0.00 0.00 0.00 73 1009.2
20260509203043 21 269 1.6 9.7 0.00 0.00 0.00 74 1009.2
20260509202535 21 271 0.0 4.8 0.00 0.00 0.00 73 1009.3
20260509202036 21 0 1.6 4.8 0.00 0.00 0.00 74 1009.2
20260509201543 21 0 0.0 4.8 0.00 0.00 0.00 75 1009.3
20260509201035 21 271 0.0 3.2 0.00 0.00 0.00 75 1009.3
20260509200538 21 271 0.0 9.7 0.00 0.00 0.00 75 1009.4
20260509200052 21 271 3.2 9.7 0.00 0.00 0.00 74 1009.6
20260509195536 21 271 0.0 6.4 0.00 0.00 0.00 74 1009.6
20260509195035 21 0 0.0 9.7 0.00 0.00 0.00 75 1009.6
20260509194547 21 0 3.2 12.9 0.00 0.00 0.00 73 1009.7
20260509194035 21 258 3.2 12.9 0.00 0.00 0.00 73 1009.8
20260509193536 21 258 1.6 6.4 0.00 0.00 0.00 73 1009.8
20260509193049 21 0 1.6 11.3 0.00 0.00 0.00 73 1009.8
20260509192536 21 271 1.6 12.9 0.00 0.00 0.00 72 1009.9
20260509192036 21 272 3.2 14.5 0.00 0.00 0.00 71 1010.0
20260509191546 21 265 4.8 14.5 0.00 0.00 0.00 70 1010.0
20260509191040 22 268 3.2 14.5 0.00 0.00 0.00 69 1009.9
20260509190535 22 274 1.6 11.3 0.00 0.00 0.00 68 1009.9
20260509190044 22 265 3.2 11.3 0.00 0.00 0.00 66 1009.9
20260509185536 23 0 1.6 14.5 0.00 0.00 0.00 66 1009.8
20260509185036 23 0 1.6 14.5 0.00 0.00 0.00 68 1009.7
20260509184547 23 261 3.2 14.5 0.00 0.00 0.00 66 1009.8